sat.trackr.live / text

‹ back to catalog

HISAKI (SPRINT-A)

NORAD 39253 · 2013-049A

PAYLOAD ACTIVE UNKNOWN

§ Identity

Operator
Country
JPN
Launch date
2013-09-14
Launch site
KSCUT
Launch vehicle
Mass (kg)
RCS (m²)
1.94

Purposes: science

External: N2YO · Heavens-Above · Gunter

§ Orbital elements

Epoch: 2026-09-09T02:06:39.082176Z

Period
106.23 min
Inclination
29.7190°
Eccentricity
0.0136534
Mean motion
13.55550249 rev/d
Perigee alt
950.5 km
Apogee alt
1,153.4 km
Semi-major
7,430.0 km
B*
4.7892e-5
RAAN
153.4498°
Arg perigee
336.9473°
Mean anomaly
22.5017°
Rev number
64,281

§ Raw data

HISAKI (SPRINT-A)1 39253U 13049A   26252.08795234  .00000099  00000+0  47892-4 0  99952 39253  29.7190 153.4498 0136534 336.9473  22.5017 13.55550249642810

JSON: /api/v1/satellites/39253 · /tle

For live sub-satellite position, see the globe view (requires WebGL).

§ Visibility from observer

Set your observer location to see the next 7 days of passes ≥ 10°. The values pass through the URL so the page stays shareable.

No JS? Fill the form by hand. The geolocation button needs JavaScript.